Port Angeles, WA
on Monday, January 14, 2013

Monday
Previous Day Next Day
Daily Summary
 ActualAverageRecord
Temperature
Mean Temperature °F °F  
Max Temperature 42°F 45°F 58°F (1961)
Min Temperature 34°F 35°F 10°F (1950)
Degree Days
Heating Degree Days 27    
Moisture
Dew Point 33°F   
Average Humidity 84    
Maximum Humidity 93    
Minimum Humidity 73    
Precipitation
Precipitation 0.00 in in in ()
Wind
Wind Speed 2 mph   
Max Wind Speed 6 mph   
Max Gust Speed mph   
Visibility 10 miles   
Events Rain   
Averages and records for this station are not official NWS values.
Key: T is trace of precipitation, MM is missing value
Source: NWS Daily Summary
Seasonal Weather Averages
Time(PST)TemperatureDew PointHumidity Pressure Visibility Wind DirectionWind SpeedGust SpeedPrecipitationEvents Conditions
12:53 AM 35.1°F 30.0°F 82% 30.47 in 10.0 miles North - - N/A   Overcast
1:53 AM 34.0°F 28.9°F 82% 30.46 in 10.0 miles North - - N/A   Overcast
2:53 AM 34.0°F 30.9°F 89% 30.47 in 10.0 miles North - - N/A   Overcast
3:12 AM 34.0°F 30.9°F 89% 30.45 in 10.0 miles North - - N/A   Overcast
3:53 AM 35.1°F 30.0°F 82% 30.47 in 10.0 miles North - - N/A   Overcast
4:53 AM 35.1°F 30.0°F 82% 30.46 in 10.0 miles North - - N/A   Overcast
5:44 AM 36.0°F 30.0°F 79% 30.44 in 10.0 miles North - - N/A   Overcast
5:53 AM 35.1°F 30.9°F 85% 30.46 in 10.0 miles North - - N/A   Overcast
6:53 AM 36.0°F 30.0°F 79% 30.45 in 10.0 miles WSW 3.5 mph - N/A   Overcast
7:53 AM 36.0°F 30.9°F 82% 30.47 in 10.0 miles WSW 3.5 mph - N/A   Overcast
8:53 AM 36.0°F 30.9°F 82% 30.48 in 10.0 miles WSW 4.6 mph - N/A   Overcast
9:12 AM 37.0°F 30.9°F 79% 30.46 in 10.0 miles WSW 3.5 mph - N/A   Overcast
9:53 AM 37.9°F 32.0°F 79% 30.48 in 10.0 miles Calm Calm - N/A   Overcast
10:53 AM 39.9°F 33.1°F 77% 30.47 in 10.0 miles Calm Calm - N/A   Overcast
11:28 AM 41.0°F 33.1°F 73% 30.47 in 10.0 miles Calm Calm - N/A   Overcast
11:53 AM 41.0°F 34.0°F 76% 30.48 in 10.0 miles Calm Calm - N/A   Overcast
12:53 PM 42.1°F 35.1°F 76% 30.48 in 10.0 miles NE 3.5 mph - 0.00 in   Overcast
1:53 PM 41.0°F 35.6°F 81% 30.46 in 10.0 miles Calm Calm - N/A   Overcast
2:13 PM 41.0°F 35.1°F 79% 30.47 in 10.0 miles East 3.5 mph - 0.00 in Rain Light Rain
2:53 PM 41.0°F 36.0°F 82% 30.49 in 10.0 miles ESE 3.5 mph - 0.00 in   Overcast
3:00 PM 41.0°F 36.0°F 82% 30.48 in 10.0 miles East 4.6 mph - N/A   Overcast
3:53 PM 41.0°F 36.0°F 82% 30.51 in 10.0 miles East 3.5 mph - N/A   Overcast
4:53 PM 39.9°F 36.0°F 86% 30.51 in 10.0 miles Calm Calm - N/A   Overcast
5:38 PM 39.0°F 36.0°F 89% 30.49 in 10.0 miles Calm Calm - N/A   Overcast
5:53 PM 37.0°F 35.1°F 93% 30.51 in 10.0 miles West 3.5 mph - N/A   Mostly Cloudy
6:27 PM 37.9°F 36.0°F 93% 30.51 in 10.0 miles WNW 3.5 mph - N/A   Mostly Cloudy
6:36 PM 36.0°F 34.0°F 93% 30.51 in 10.0 miles WSW 3.5 mph - N/A   Overcast
6:53 PM 36.0°F 34.0°F 93% 30.53 in 10.0 miles Calm Calm - N/A   Overcast
7:27 PM 35.1°F 33.1°F 92% 30.52 in 10.0 miles Calm Calm - N/A   Overcast
7:53 PM 36.0°F 34.0°F 93% 30.54 in 10.0 miles Calm Calm - N/A   Overcast
8:53 PM 37.0°F 34.0°F 89% 30.54 in 10.0 miles Calm Calm - N/A   Overcast
9:53 PM 37.0°F 34.0°F 89% 30.56 in 10.0 miles SW 5.8 mph - N/A   Overcast
10:53 PM 37.0°F 34.0°F 89% 30.56 in 10.0 miles Calm Calm - N/A   Overcast
11:53 PM 36.0°F 33.1°F 89% 30.56 in 10.0 miles Calm Calm - N/A   Mostly Cloudy
Moon Phase
Jan. 14 Jan. 18 Jan. 26 Feb. 03 Feb. 10
Sunrise:07:59 AM (PST) Moon Rise:09:17 AM (PST)1/14
Sunset:04:47 PM (PST) Moon Set:09:00 PM (PST)1/14

Copyright © 2014 The Weather Underground, Inc.